Погода в Николаевке

Россия / Республика Крым     44°58′07″N   33°36′26″E
темп.,
°C
ветер,
м/с
пор.,
м/с
влажн.,
%
обл.,
%
осадки,
мм/ч
давл.,
гПа
погр.,
м
16 апреля, пт
пт1600:00+9юз5570100 0.0 1018883
03:00+9юз557299 0.1 1018844
06:00+9ююз667915 0.0 1018513
09:00+9ююз788013 0.0 1018497
12:00+10юз798387 0.0 1019708
15:00+9зюз810711 0.0 1019868
18:00+9з56789 0.0 1020594
21:00+8з45775 0.1 1021481
17 апреля, сб
сб1700:00+8юз337663 0.0 1021382
03:00+8ю33752 0.0 1022350
06:00+8ююв337570 0.0 1022234
09:00+8юв116934 0.0 1023168
12:00+9з216179 0.0 1022291
15:00+10з43634 0.0 1021232
18:00+10зюз44695 0.0 1021285
21:00+9ссз3474100 0.0 102099
18 апреля, вс
вс1800:00+9всв2274100 0.0 101980
03:00+9всв4555100 0.0 1017166
06:00+7всв6779100 1.4 1017254
09:00+8св7880100 1.9 1016343
12:00+10св7888100 0.5 1016360
15:00+11всв688599 0.8 1015227
18:00+11св468372 0.0 1015114
21:00+10всв5791100 0.0 1015220
19 апреля, пн
пн1900:00+10вюв2292100 0.0 101549
03:00+10ссв1192100 0.0 101430
06:00+9всв2292100 0.0 101455
09:00+10всв3593100 1.7 1012168
12:00+11всв5793100 2.9 1010161
15:00+12св2386100 3.9 100863
18:00+13ююз3393100 0.5 100515
21:00+13ю111788100 3.9 1004324
20 апреля, вт
вт2000:00+13ююв91387100 0.3 1001233
03:00+11ююз111596100 1.4 1001423
06:00+10ююз11159131 0.3 1000655
09:00+10ююз141788100 0.8 10001235
12:00+10ююз162185100 0.8 10011500
15:00+10юз172285100 1.6 10031593
18:00+10зюз152284100 0.6 10051652
21:00+10зюз131983100 0.7 10081303